Temp
9 10 9 8 8 8 8 8 9 10 10 11 12 12 12 12 13 13 13 13 14 15 16 17 18 18 19 17 18 18 15 17 17 19 18 18 19 19 19 19 19 20 21 21 22
9 9 8 7 8 8 9 9 10 10 11 11 12 13 12 13 13 12 13 14 14 16 16 17 17 18 15 17 16 15 14 17 16 16 17 18 17 18 18 16 19 20 21 20 20
9 8 7 7 9 9 9 10 10 10 10 10 12 12 12 12 13 11 11 14 14 15 16 16 19 18 17 17 17 18 16 17 16 16 16 17 17 17 18 17 17 19 18 18 19
8 7 7 9 9 9 10 10 10 10 10 10 11 12 12 12 12 10 10 13 15 16 16 18 17 17 15 15 17 16 17 17 16 15 16 16 16 15 16 16 17 16 17 18 17
8 7 8 9 9 10 10 10 10 10 10 10 10 10 12 10 10 10 12 13 15 16 17 17 17 16 15 15 17 17 16 16 15 15 15 15 15 14 14 15 15 16 17 16 15
9 8 8 9 10 9 10 10 10 10 10 10 10 10 11 10 8 10 13 14 15 15 16 16 17 16 15 15 16 16 16 16 15 16 16 15 15 15 15 15 15 16 17 16 16
9 9 10 9 9 9 10 10 10 10 10 9 11 11 9 8 8 10 13 14 15 16 14 15 16 16 16 15 16 15 16 15 15 15 15 14 14 13 15 15 16 16 17 16 15
9 9 9 9 9 10 10 10 10 10 10 10 10 9 8 8 10 11 13 14 14 15 15 15 16 14 14 14 15 15 14 14 15 15 14 15 15 16 16 17 16 16 16 16 16
8 9 9 9 10 11 11 10 10 11 10 9 9 9 8 8 10 12 13 13 14 14 15 15 15 13 14 13 11 14 12 15 15 15 15 14 14 16 15 15 14 14 15 15 15
8 9 10 10 10 10 10 11 10 10 10 10 10 9 8 8 9 11 14 14 14 13 13 14 12 11 12 10 10 14 15 16 16 15 15 13 12 14 14 15 14 13 13 12 12
10 9 9 10 10 11 11 11 10 8 8 8 9 8 8 9 10 13 14 14 15 14 12 13 8 7 11 12 14 15 15 15 16 16 15 13 13 14 15 14 12 11 10 10 11
9 9 9 10 10 10 10 8 8 8 7 8 9 9 9 9 12 12 13 14 14 12 13 10 9 12 13 13 14 14 14 14 15 15 15 13 13 15 15 15 12 11 9 9 10
10 10 10 10 10 10 9 8 8 9 8 8 8 9 9 9 12 11 12 13 13 12 12 10 12 14 14 14 14 14 14 13 13 13 13 13 11 15 16 13 12 9 9 9 9
11 11 11 11 11 10 9 9 9 8 7 9 10 10 10 11 11 13 13 12 13 12 12 11 13 13 14 14 14 14 14 14 13 10 9 12 8 11 15 14 11 8 7 8 8
12 11 11 11 11 10 9 9 9 9 7 10 11 12 11 12 12 12 13 13 11 12 12 12 12 12 13 13 13 13 13 13 13 11 8 10 6 10 13 14 12 8 8 8 9
12 11 11 11 10 9 9 9 9 6 7 8 12 12 12 12 13 13 13 13 13 13 12 12 13 13 13 13 14 13 13 13 13 13 7 10 8 9 10 13 11 9 9 9 9
12 11 11 10 9 9 9 9 6 6 10 10 11 13 12 12 13 12 13 12 10 9 11 12 12 13 13 12 13 13 11 9 12 11 9 13 9 10 12 11 10 9 9 8 8
12 12 11 11 10 10 9 6 5 9 9 12 12 12 12 12 12 13 13 10 13 12 10 8 9 12 13 12 13 15 14 12 9 9 9 12 10 11 12 10 10 9 9 10 10
12 12 12 11 11 10 7 6 6 10 11 12 12 12 12 13 13 13 13 12 12 12 10 11 10 13 13 14 13 13 12 12 7 8 12 8 10 12 11 10 10 10 11 10 10
12 12 13 11 11 9 6 9 10 12 13 13 12 13 13 13 12 13 13 13 13 13 13 13 12 14 13 13 12 12 12 12 10 10 12 11 10 11 9 10 11 10 10 10 11
12 10 13 12 11 8 6 9 11 13 12 12 13 14 14 13 13 13 13 13 14 12 13 14 12 12 12 12 12 10 11 10 10 10 10 10 11 10 11 10 11 11 12 11 11
10 10 13 12 8 7 6 12 11 12 12 12 12 14 14 14 13 14 14 14 13 13 13 13 13 10 12 14 13 12 11 11 8 12 11 12 11 14 11 11 11 11 12 11 10
8 9 13 13 8 8 11 12 12 12 12 13 13 14 14 14 13 14 14 13 13 13 13 12 9 7 11 12 13 13 12 12 12 11 11 10 10 13 12 12 11 10 10 10 11
8 9 7 8 9 10 12 13 12 12 13 14 13 14 14 13 14 14 13 13 12 13 13 12 10 10 10 13 12 12 13 12 12 9 10 11 12 14 13 12 11 10 10 10 10
7 9 9 8 10 12 13 13 14 12 12 13 13 13 13 13 13 13 14 12 12 12 12 10 9 8 10 11 11 11 11 12 11 12 11 13 12 13 13 12 12 12 11 10 11
10 9 7 9 11 13 11 12 13 14 13 13 12 13 14 13 13 13 14 14 12 10 11 10 9 10 9 11 11 10 11 11 12 13 12 13 13 15 15 13 13 11 11 11 11
10 10 8 9 10 10 10 13 13 13 13 13 13 13 13 12 12 12 11 11 11 11 10 10 8 8 8 10 9 10 11 12 12 12 13 12 14 14 14 13 14 12 12 11 11
Height
757 751 747 743 737 734 734 735 738 741 749 754 758 761 767 772 777 782 786 789 788 787 788 789 790 791 793 795 797 799 820 822 822 814 820 812 813 810 809 812 810 807 807 808 808
756 749 745 736 729 724 723 729 730 741 749 753 756 761 767 772 778 783 790 789 788 788 789 790 791 792 799 800 802 809 826 818 818 818 818 814 817 816 816 819 813 809 806 808 809
758 751 743 729 716 720 723 730 738 743 748 754 759 765 768 774 779 790 790 790 789 789 790 792 791 794 800 803 805 805 820 814 818 817 816 816 818 816 817 820 815 814 812 809 808
760 752 742 733 731 734 738 742 744 747 750 756 761 765 770 777 786 791 790 791 791 790 791 790 793 800 807 810 805 813 813 814 817 818 819 820 821 822 818 815 808 809 808 806 805
764 756 749 746 747 749 748 748 750 752 756 761 762 766 772 782 792 792 791 792 792 791 791 792 796 801 808 809 808 811 815 816 819 820 822 821 824 825 816 810 807 807 806 806 806
771 766 761 758 757 756 755 756 757 758 761 765 769 773 777 790 797 795 794 794 794 794 794 795 798 798 805 810 812 812 814 816 819 819 818 821 823 820 808 804 806 806 805 804 804
777 773 769 767 765 764 763 764 764 766 768 772 772 778 785 802 798 797 797 797 796 795 797 798 797 799 804 813 811 813 817 818 820 820 821 822 824 821 805 806 807 806 804 802 801
785 782 780 776 774 773 772 772 773 773 773 776 780 786 800 804 800 799 800 800 800 799 800 801 800 803 808 812 814 818 821 827 820 820 822 822 824 808 803 805 807 806 803 801 796
790 788 786 784 783 782 781 781 781 781 782 785 788 793 809 810 805 801 802 804 804 804 805 804 805 812 813 821 834 823 839 824 821 819 821 823 822 807 804 806 805 803 801 800 798
795 793 791 790 788 787 787 786 786 786 788 789 793 799 813 816 807 805 806 806 806 807 809 809 814 821 822 834 847 828 825 818 817 821 820 822 821 809 806 805 804 804 804 804 802
801 799 797 793 791 788 786 788 793 801 800 806 810 810 815 813 808 806 807 806 806 808 817 813 835 850 831 826 822 822 820 821 817 817 820 819 818 804 799 801 806 806 807 805 804
806 802 800 798 796 793 791 794 802 807 812 815 815 815 816 816 813 809 807 808 808 816 813 827 840 828 824 823 824 823 824 828 820 816 818 819 811 798 793 795 803 805 808 807 804
808 806 804 803 801 800 800 803 806 808 813 822 822 820 821 818 816 815 812 810 814 819 821 833 831 824 823 824 825 824 827 831 831 826 821 820 817 797 791 799 803 809 810 808 806
813 810 807 804 804 804 806 807 806 807 826 832 824 823 821 819 822 818 816 817 816 824 823 831 827 828 825 824 825 828 827 828 830 842 856 831 859 817 795 796 805 812 810 806 803
813 810 808 806 807 807 809 807 806 807 845 834 829 825 821 822 824 821 818 816 824 823 825 834 831 829 827 830 828 833 830 832 832 837 855 839 868 820 801 798 799 809 806 805 800
811 809 808 807 806 807 807 806 807 830 857 846 827 825 824 821 821 821 820 820 823 822 827 830 828 829 832 830 828 829 830 830 831 832 869 835 850 827 815 798 802 808 806 802 798
810 808 806 807 807 805 805 807 831 854 843 842 833 824 824 826 825 825 824 828 836 849 834 832 832 830 830 834 829 830 837 863 839 839 856 819 846 813 797 801 802 804 802 798 795
810 809 808 807 807 805 807 821 857 846 842 831 829 827 828 827 827 825 826 837 827 829 841 859 859 834 831 833 833 823 828 843 870 859 858 823 833 808 791 797 798 798 797 792 791
809 810 808 808 807 807 812 846 858 839 831 829 828 828 829 827 828 827 826 831 830 830 843 838 844 828 829 827 830 831 836 838 869 860 834 843 813 792 795 796 797 795 791 791 789
809 810 809 808 807 808 822 831 833 826 828 828 829 824 830 828 829 828 828 827 829 828 829 829 839 828 831 830 834 836 838 840 848 852 829 824 821 807 804 795 791 791 789 788 787
812 813 809 808 807 813 842 835 827 826 829 831 827 823 824 825 826 827 827 828 825 830 828 828 836 835 832 833 831 843 838 842 844 847 844 837 815 791 788 786 785 783 782 783 782
813 821 809 809 821 830 843 827 828 827 826 829 829 825 826 825 827 825 824 825 824 828 829 828 831 847 832 816 819 826 831 833 853 830 834 828 808 772 778 780 781 779 778 779 779
820 818 809 809 836 838 828 827 826 828 827 824 824 824 823 826 829 822 822 823 824 827 830 831 844 864 835 830 821 822 820 821 823 825 826 840 808 773 776 777 777 778 778 776 775
820 830 820 813 819 825 825 825 826 825 824 823 824 821 822 824 822 824 825 825 824 825 826 830 836 839 840 818 818 821 813 814 819 838 824 808 788 770 773 775 773 774 771 770 770
821 827 827 833 823 817 818 821 821 826 826 824 824 823 821 822 822 825 819 826 826 826 828 833 840 842 828 820 816 813 812 810 815 807 813 784 786 767 769 770 766 762 763 765 765
823 824 827 827 820 819 821 819 816 817 822 823 824 819 818 822 821 822 819 820 824 831 831 830 837 826 828 810 810 812 801 799 796 793 791 783 776 757 757 759 756 755 755 758 758
823 822 822 825 825 825 823 813 812 811 813 813 818 820 819 818 818 817 817 817 818 825 830 832 840 841 834 813 815 809 785 781 780 778 775 782 750 755 756 755 750 749 750 750 750
Wind_Speed
28 23 14 15 18 14 13 16 21 22 23 21 23 18 24 20 14 12 5 4 1 9 10 9 4 1 9 3 4 3 4 1 4 3 3 3 4 5 2 2 4 3 2 6 10
26 17 18 21 16 18 11 15 17 22 18 15 17 19 26 19 18 16 7 4 4 8 5 7 4 7 3 2 3 4 3 2 2 2 3 4 5 3 4 6 3 3 4 10 7
28 23 23 20 17 20 28 27 22 17 15 16 21 23 25 18 6 5 12 3 2 4 3 2 9 5 4 2 0 2 3 4 3 4 5 3 4 5 0 4 6 0 6 7 7
29 26 19 18 36 34 26 24 20 14 15 17 15 27 25 18 5 5 12 2 3 2 4 8 4 3 4 5 1 5 5 4 4 3 3 2 3 6 4 7 6 7 6 5 8
28 28 32 31 29 28 24 22 19 19 22 24 23 24 16 8 6 9 5 4 4 3 3 4 3 4 6 5 3 3 3 4 6 5 2 2 3 6 9 11 10 10 9 7 7
26 25 29 33 30 28 22 22 27 33 29 27 23 18 6 10 10 6 5 3 2 6 9 6 1 2 5 5 3 3 5 5 5 3 2 2 3 2 6 7 7 8 7 7 7
26 27 29 30 29 32 30 25 27 29 35 31 32 25 21 9 6 12 10 11 8 8 4 11 5 6 3 4 2 2 3 1 4 3 2 2 4 8 12 5 6 8 7 8 10
25 26 25 28 31 32 33 32 30 27 21 23 30 28 6 15 8 14 15 13 13 13 12 11 11 5 4 3 3 2 4 2 1 5 2 2 6 6 1 2 6 8 8 8 10
23 24 23 23 27 32 29 25 26 24 25 25 17 13 6 8 7 12 13 12 13 12 9 8 6 3 3 4 4 3 1 3 2 6 3 3 6 7 7 7 9 8 8 6 6
23 21 21 21 16 16 15 28 34 22 16 15 9 8 4 1 8 11 5 4 4 4 4 5 4 3 4 5 3 1 1 3 2 4 3 4 12 12 10 8 10 7 7 7 8
18 17 16 15 17 13 12 10 5 8 22 12 13 16 2 7 8 12 11 3 1 1 3 3 8 3 4 3 2 1 1 3 2 1 4 6 8 16 10 6 5 5 7 7 8
15 19 19 21 19 21 25 7 6 8 11 20 13 7 4 7 4 16 14 2 3 4 3 6 4 1 4 4 4 4 3 4 2 3 4 8 15 18 15 3 5 6 8 8 10
10 11 14 11 11 19 21 10 8 2 6 5 3 3 4 9 6 9 10 5 5 6 6 6 3 1 3 3 5 3 3 3 2 7 4 9 8 4 3 8 8 8 5 4 7
8 11 14 7 4 3 4 3 3 2 5 10 7 5 4 2 4 7 8 2 6 4 5 6 3 3 2 3 3 3 5 5 5 5 2 5 5 6 2 4 6 5 5 6 7
9 11 10 6 4 3 2 3 3 1 6 9 5 4 6 4 2 6 4 5 5 4 4 2 2 3 4 3 3 2 4 3 2 3 4 4 2 7 2 5 4 7 8 7 8
9 11 7 0 2 1 3 2 1 6 4 6 3 3 2 4 3 2 4 4 1 3 6 3 1 2 1 3 1 4 3 3 1 1 3 5 5 6 3 4 2 3 7 8 8
7 10 7 3 1 4 3 2 5 7 2 4 2 2 4 5 4 5 3 4 3 5 3 3 0 1 2 2 2 1 4 3 2 0 5 3 2 9 5 4 4 4 8 9 7
4 7 8 7 5 2 3 6 11 4 3 3 3 2 3 4 3 4 2 3 3 2 1 3 5 4 3 2 1 1 2 1 3 2 5 3 6 6 4 6 6 7 8 6 6
2 4 4 7 3 3 5 7 5 4 4 3 3 1 2 1 1 1 3 2 3 4 3 3 1 2 2 4 2 1 1 3 2 2 3 4 7 4 4 5 6 8 6 6 4
1 3 5 5 1 3 5 6 4 1 1 1 2 2 2 2 1 2 3 1 3 3 2 2 2 1 1 3 3 2 1 2 2 3 4 5 5 5 5 7 8 7 7 6 3
1 3 4 2 1 5 4 2 4 1 3 2 4 0 3 3 2 2 1 3 2 2 3 2 1 1 3 5 7 2 2 3 1 3 2 4 6 6 7 8 9 8 7 6 4
3 3 3 1 4 3 2 2 2 3 3 2 1 3 3 1 2 3 1 2 5 4 3 3 3 4 8 4 7 5 6 5 3 3 3 2 6 4 7 7 6 7 6 5 6
2 2 1 1 3 2 1 1 1 3 4 3 2 2 3 3 2 0 3 4 6 5 2 3 2 2 4 5 2 4 6 6 3 2 7 3 6 1 3 5 7 8 8 7 7
2 2 4 4 2 6 3 2 2 1 2 2 2 3 2 3 4 2 3 4 7 5 5 3 3 6 5 3 3 4 5 8 7 3 4 10 9 11 8 9 7 9 9 8 8
2 2 3 1 3 3 3 5 2 2 2 3 3 5 3 2 4 3 3 3 2 4 4 4 5 4 7 12 11 12 13 12 12 12 8 2 8 10 7 7 11 13 9 8 8
1 2 2 2 1 1 2 7 7 4 6 4 4 3 4 4 4 4 1 3 5 3 4 3 4 3 6 11 7 9 14 16 17 18 18 21 25 22 18 11 11 11 9 9 9
3 0 3 2 2 4 4 4 6 7 5 6 4 1 3 6 3 4 5 4 6 7 6 6 3 2 5 6 9 8 9 15 9 8 18 17 27 7 11 9 7 7 9 10 10
Wind_Direction
344 344 341 322 303 285 265 239 226 220 211 186 186 176 163 156 142 113 57 350 244 145 138 141 173 156 97 58 32 46 68 22 2 82 127 26 56 359 332 320 341 342 93 174 174
358 358 357 334 316 289 250 185 165 156 161 173 175 172 161 151 122 67 10 54 117 137 140 163 159 109 61 62 9 79 87 106 15 18 88 88 70 345 13 0 309 311 338 24 51
17 15 355 335 333 105 110 104 108 117 143 155 165 161 155 143 118 51 10 17 146 155 267 243 161 99 77 95 153 88 119 146 49 81 38 50 25 328 318 290 226 331 300 323 337
18 9 6 27 66 80 86 96 99 103 131 140 145 156 148 151 92 346 354 356 129 73 312 177 127 102 108 146 99 104 74 81 129 45 40 72 343 321 234 231 259 278 269 302 319
23 27 25 50 68 72 74 82 77 104 117 114 118 125 131 68 35 351 61 103 110 36 31 68 120 137 145 138 89 85 128 100 127 147 215 257 247 245 259 253 268 288 298 292 288
34 41 45 45 51 56 74 83 89 97 97 104 104 101 74 75 344 42 73 102 20 332 45 38 16 115 101 114 84 83 127 144 159 191 227 231 261 340 269 260 252 249 256 267 263
44 45 51 49 56 59 72 82 106 98 94 78 87 99 49 40 46 12 70 65 51 81 67 33 6 78 97 87 352 82 82 130 206 205 180 96 257 233 249 299 240 245 250 256 251
47 43 43 59 61 64 72 77 86 85 109 99 86 78 65 51 24 33 92 77 81 91 69 36 48 75 74 117 62 81 46 105 204 152 206 133 260 257 240 26 317 291 278 271 269
40 52 57 55 69 67 65 70 75 83 93 114 94 88 69 23 9 37 89 99 90 85 69 50 46 91 39 94 40 17 181 180 237 196 151 177 264 240 298 320 294 280 273 308 336
42 62 65 64 57 33 40 68 63 60 59 70 57 76 2 29 307 355 91 103 97 111 38 44 53 70 37 58 170 86 235 196 224 218 227 228 257 275 273 274 272 334 27 31 20
37 50 39 19 27 9 37 84 32 38 44 56 67 91 64 329 319 16 3 342 139 346 94 41 69 92 99 60 79 349 47 23 63 62 276 257 284 283 282 265 83 52 32 24 11
49 68 57 49 40 69 80 68 63 132 61 37 43 67 45 342 358 6 8 70 66 94 92 41 86 108 89 53 56 44 47 353 39 33 326 316 293 277 274 221 139 79 35 15 351
61 48 30 37 45 52 77 76 112 29 73 45 12 45 316 354 25 353 11 354 64 61 71 100 137 16 26 40 38 50 59 33 331 338 348 350 309 355 18 116 93 57 48 8 336
3 356 2 4 47 42 55 60 95 49 75 5 5 2 331 225 44 357 1 49 34 79 83 91 35 23 20 59 60 76 19 24 358 29 286 75 283 301 229 200 89 25 17 344 336
329 324 336 37 353 48 34 359 359 265 63 311 334 302 290 71 200 348 323 27 54 47 72 237 113 25 21 51 30 111 343 273 262 284 33 323 63 269 296 227 301 7 2 319 294
346 341 335 213 351 43 324 328 74 42 31 326 292 296 13 38 29 264 9 53 51 52 55 93 43 51 46 356 54 318 336 299 168 308 343 230 143 275 223 218 341 343 306 294 295
12 15 21 6 315 310 330 69 48 63 284 315 303 9 63 33 19 18 32 31 68 65 15 36 116 120 78 15 246 190 50 356 329 309 228 196 110 248 234 160 184 233 270 277 283
16 18 17 15 326 31 44 49 66 245 189 267 263 290 75 20 359 348 40 33 353 54 95 121 338 182 176 213 349 3 329 196 253 306 271 318 241 257 163 169 193 224 250 289 319
341 342 355 348 356 10 77 50 158 205 217 202 320 332 36 68 99 10 63 92 56 42 98 43 311 88 175 22 55 355 183 117 104 226 276 242 285 297 163 205 229 236 273 282 305
34 323 323 350 37 18 70 118 113 115 34 18 193 152 122 206 185 183 155 297 120 67 70 67 73 159 108 83 57 51 78 193 137 302 280 283 277 240 262 245 224 237 253 263 270
157 53 335 347 70 50 86 100 124 113 22 332 342 161 97 159 82 33 144 209 132 123 34 123 93 251 100 205 186 151 198 220 335 179 222 304 267 217 225 210 210 227 228 251 233
332 48 356 44 48 52 62 13 327 142 142 281 301 332 19 357 213 219 205 112 147 164 178 166 191 232 228 246 174 177 191 175 141 201 233 243 271 209 223 213 221 237 223 255 211
24 272 157 299 91 36 264 65 339 150 206 192 216 90 27 321 341 188 190 161 154 180 201 183 252 349 360 350 291 216 206 194 166 120 220 172 260 202 237 237 234 238 239 251 216
62 359 326 43 146 131 150 208 189 224 236 200 228 113 198 231 217 248 213 217 185 190 146 100 240 202 204 228 129 226 219 210 178 181 209 229 278 262 270 252 249 242 238 237 219
50 248 205 281 325 122 134 159 168 221 246 215 235 226 196 201 182 220 200 138 232 177 184 169 231 204 246 258 259 253 243 234 218 215 202 247 238 264 267 247 239 237 230 229 219
68 108 3 268 213 161 189 200 187 185 160 237 213 297 198 200 161 217 101 221 191 199 188 208 273 288 271 259 259 258 248 239 237 238 246 255 272 272 277 283 281 235 209 215 215
348 103 106 281 255 125 222 224 202 149 203 160 182 162 252 240 200 227 217 212 187 166 208 168 200 355 268 309 324 293 229 222 225 219 223 236 245 277 280 282 279 242 208 214 219